Theta_e
305 305 305 305 305 305 305 306 306 307 309 310 311 311 310 310 310 310 309 309 309 309 309 308 308 308 308 308 308 308 309 309 309 309 310 311 310 315 321 319 322 324 321 320 319 318 317 314 314 331 344 340 341 345 349 352 352 354 359 361 360 361 361 361 359 356 359 358 356 357 356 357 357 355 355 355 354 354 354 352 353 353 351 351 352 352 352 352
305 305 305 305 305 305 305 305 306 307 308 309 310 310 310 310 310 310 309 309 309 309 309 309 308 308 308 309 308 309 309 309 311 311 311 312 311 315 321 320 320 323 321 319 319 316 317 313 318 335 341 336 338 340 344 349 352 355 360 361 361 362 359 357 357 354 356 357 355 356 356 356 357 355 355 356 355 353 354 352 352 352 351 351 351 351 351 351
305 305 305 305 305 305 305 305 306 306 307 309 309 310 310 310 310 310 310 310 309 309 309 309 308 308 308 308 309 309 309 315 320 320 318 316 312 314 321 321 320 321 321 318 316 316 316 315 324 337 336 333 336 338 341 347 352 354 356 360 360 358 357 356 354 354 355 355 356 356 357 357 356 355 356 357 354 353 355 353 352 352 351 351 351 351 350 350
305 305 305 305 305 305 305 305 305 306 307 308 309 310 310 309 310 310 310 310 309 309 309 309 308 308 309 308 309 308 310 324 330 326 324 321 317 315 319 323 320 320 320 317 315 317 319 320 330 336 333 332 335 337 340 345 352 352 353 356 357 354 355 357 352 352 354 354 357 357 357 358 356 356 356 356 356 356 356 353 352 352 351 350 351 351 350 350
305 305 305 305 305 305 305 306 306 306 307 308 309 309 309 309 310 310 309 309 309 309 308 309 308 308 308 308 310 308 312 328 332 327 325 320 320 318 318 321 322 321 320 318 316 320 324 325 330 333 334 334 335 338 340 344 349 351 351 350 352 353 355 356 351 354 356 353 357 358 358 358 355 356 356 356 359 359 355 352 352 351 350 350 350 350 350 350
304 305 305 305 305 305 305 305 306 306 307 308 309 309 309 309 309 309 309 308 309 308 308 308 308 308 308 308 309 308 314 325 327 326 324 320 320 320 319 318 321 322 320 319 317 321 327 326 326 329 334 336 336 339 340 343 346 347 348 347 348 351 355 355 351 356 355 353 358 358 358 357 357 358 356 355 357 356 354 352 352 352 351 350 350 350 349 349
304 304 305 304 304 305 305 305 305 306 307 308 309 309 309 309 309 309 308 308 308 308 308 308 308 308 308 308 309 311 316 322 324 325 323 322 322 320 320 318 318 321 321 320 317 321 328 326 325 327 332 338 339 340 341 341 343 343 342 344 346 348 354 354 351 354 354 355 357 356 357 357 358 358 356 356 354 353 354 352 351 352 351 350 349 349 349 349
305 305 305 304 304 305 305 305 305 306 307 308 308 309 309 310 309 308 308 308 308 308 308 308 308 308 308 308 310 314 318 323 324 323 322 322 323 320 321 321 317 317 321 320 317 321 326 326 326 327 331 338 340 340 340 339 339 340 340 341 343 347 353 354 352 353 353 356 355 355 357 356 357 356 356 356 352 352 354 352 351 352 350 349 349 348 348 348
305 305 305 305 305 305 305 305 305 305 306 308 309 309 309 309 309 308 308 308 308 308 308 309 309 308 309 310 312 320 323 323 324 323 323 323 323 322 320 321 318 316 320 319 317 319 323 326 328 330 331 336 340 340 339 339 338 337 337 338 340 349 354 353 354 354 355 355 354 356 357 356 355 354 357 355 352 354 354 351 351 351 350 349 349 348 347 347
306 306 306 306 306 306 305 305 305 306 306 308 309 309 309 310 308 308 308 308 308 309 311 311 312 311 312 311 316 325 325 322 325 323 322 323 324 324 321 321 319 317 319 319 317 319 326 331 332 331 332 335 339 339 338 338 338 334 334 333 335 347 354 355 356 355 355 354 353 357 357 356 354 357 361 355 352 355 354 352 351 350 350 349 349 349 347 347
307 307 307 307 307 307 306 306 305 306 306 308 310 310 310 310 309 308 308 308 310 312 313 313 313 313 313 313 317 325 324 321 322 320 321 324 324 324 321 321 320 318 319 319 317 323 333 336 333 331 332 334 337 338 336 336 334 331 331 328 331 345 355 356 356 355 355 354 354 355 357 357 355 358 361 353 351 356 354 353 351 350 350 348 349 349 347 347
308 308 308 308 308 308 308 306 305 306 306 308 310 310 310 309 309 308 308 309 311 313 315 314 313 313 313 313 316 320 322 321 319 319 320 322 323 325 322 319 320 320 320 319 318 328 336 335 331 329 331 333 334 335 334 333 331 329 329 327 331 344 354 355 356 356 355 355 355 354 357 359 358 358 356 351 352 355 354 354 352 350 350 349 350 349 347 347
308 308 307 308 308 308 308 307 305 306 306 309 310 310 310 309 309 309 308 310 312 312 315 315 313 314 317 318 320 320 321 319 318 319 319 319 323 327 324 323 323 322 321 319 320 329 335 333 330 329 330 329 330 333 333 332 331 330 329 326 328 339 351 355 354 355 354 355 354 353 359 359 358 356 354 352 353 354 355 354 352 351 350 349 349 349 348 347
307 307 307 307 307 308 308 306 306 306 308 310 311 311 310 310 310 309 309 310 311 312 315 317 317 319 323 323 322 323 321 318 317 318 319 320 324 325 325 327 327 325 323 319 320 328 333 332 329 327 327 327 330 332 332 332 330 330 328 327 328 328 340 354 352 352 356 355 353 353 360 359 356 355 353 353 353 355 355 354 352 352 351 350 350 350 349 348
307 306 306 306 307 307 307 306 306 306 309 311 311 312 310 311 313 310 309 310 311 313 314 320 323 324 326 326 323 324 320 319 319 318 320 321 323 325 325 327 328 326 324 320 320 325 328 327 326 325 325 328 331 331 331 331 330 330 326 327 329 323 331 351 353 352 356 355 353 352 357 357 354 354 353 354 354 355 356 353 352 353 351 350 350 351 350 349
305 305 305 306 306 306 306 305 305 307 311 312 312 312 310 312 314 311 310 310 312 314 313 319 323 324 328 327 325 326 320 319 319 318 320 318 321 325 324 326 328 327 324 321 320 323 325 325 327 329 329 331 332 330 330 330 330 332 326 324 326 324 327 338 349 353 354 355 354 351 356 358 355 352 352 354 354 356 355 352 352 352 352 351 350 351 351 351
305 305 306 306 306 306 306 305 307 310 312 314 314 313 312 314 316 314 313 313 316 315 315 320 320 322 328 325 322 324 322 319 317 317 318 316 321 322 321 326 330 328 326 324 323 325 327 328 331 332 331 330 330 329 329 327 327 330 328 324 324 326 324 326 342 354 352 354 356 352 354 357 355 352 353 355 355 356 355 352 352 352 352 352 352 352 352 351
306 307 308 307 307 306 306 307 309 312 314 315 316 315 315 315 317 318 317 317 318 319 322 324 323 324 325 321 322 321 320 318 316 317 317 316 319 319 319 325 329 328 328 328 328 327 330 332 332 331 330 330 329 328 327 327 327 327 326 324 322 324 325 323 335 351 353 353 356 353 351 354 354 353 355 356 355 355 354 352 351 351 352 351 352 352 352 352
308 309 309 309 309 307 307 310 312 314 315 316 315 315 315 315 317 318 317 316 317 322 328 326 326 327 323 321 321 316 317 318 317 317 317 317 318 318 319 322 327 329 329 330 330 329 330 332 331 331 330 329 329 328 326 328 327 327 326 324 322 321 323 323 329 347 353 350 353 352 350 354 354 353 356 356 355 354 353 352 351 351 351 351 352 352 353 352
308 310 311 310 310 309 310 312 314 315 316 316 316 315 314 314 317 317 315 315 315 318 322 319 321 324 321 320 319 315 317 317 316 317 317 318 318 319 321 322 326 329 329 330 330 330 330 332 333 332 331 328 328 327 326 328 327 328 327 325 324 321 322 324 326 345 353 349 351 350 349 355 354 353 356 356 354 354 352 352 351 350 351 351 352 352 352 353
309 310 311 311 311 310 311 314 315 315 316 316 316 316 316 315 315 315 314 315 315 314 315 314 317 318 319 318 316 315 315 314 316 316 316 318 318 318 322 325 327 328 328 328 329 330 330 332 333 331 330 328 327 328 327 328 328 328 327 326 325 322 323 323 324 341 351 348 349 349 350 355 355 354 355 355 353 353 352 352 351 351 351 350 351 352 352 352
310 310 311 311 311 311 311 314 316 316 316 317 317 317 316 315 315 315 315 315 315 314 314 315 314 316 317 316 315 315 314 314 315 315 317 318 318 318 320 325 329 330 329 327 328 330 331 330 330 328 328 327 327 328 327 328 328 327 327 324 323 322 323 323 324 338 348 348 349 349 351 352 354 354 354 354 353 353 352 352 351 351 350 350 351 351 351 351
310 310 311 312 312 312 311 313 316 316 316 316 316 316 316 315 315 316 315 315 315 314 314 314 315 316 316 314 315 314 314 315 314 316 317 318 318 318 321 324 328 329 328 329 329 329 329 329 328 327 327 328 328 328 328 329 327 327 327 323 322 322 322 321 322 329 343 353 352 350 352 353 355 355 355 354 352 353 352 351 352 352 350 350 350 351 351 352
311 311 311 312 312 312 312 312 315 316 316 316 316 315 315 316 316 315 314 315 315 315 315 316 315 317 316 314 315 314 314 314 314 317 318 318 319 319 322 324 326 327 327 328 329 328 328 328 326 326 327 329 329 328 329 328 325 325 325 323 322 323 322 321 323 325 331 345 351 351 353 355 356 357 357 355 353 352 353 352 351 352 351 350 350 351 351 351
311 311 312 312 313 314 313 312 315 316 316 317 317 316 315 316 316 315 315 316 316 317 316 316 317 317 315 315 315 314 314 314 315 319 318 319 319 320 320 321 323 326 325 326 327 327 327 326 326 326 327 327 327 328 328 326 325 323 322 324 323 323 324 323 325 323 320 330 343 350 350 351 356 358 358 356 355 354 353 353 352 352 352 351 351 351 350 351
313 312 312 313 313 313 314 313 315 315 316 318 317 316 316 316 315 315 317 319 318 319 317 316 316 316 315 315 315 314 315 315 315 317 318 317 318 318 319 319 321 324 325 325 325 327 326 326 326 325 327 327 327 327 326 326 322 320 324 326 324 323 325 323 324 322 320 328 339 344 348 349 349 354 357 355 355 355 354 353 352 353 353 353 352 352 351 351
314 313 313 314 314 314 314 313 314 315 316 318 317 317 315 315 316 315 321 325 320 317 316 314 315 315 315 315 314 314 316 316 316 317 318 317 317 316 318 320 320 321 322 321 322 325 326 325 326 325 326 326 326 325 325 326 321 322 327 325 326 326 324 325 323 321 320 327 331 331 341 349 348 351 355 355 355 355 355 355 353 353 354 355 354 352 352 351
314 314 314 315 314 314 314 313 315 316 316 316 316 316 314 316 316 315 322 326 320 316 315 313 314 314 314 315 314 315 316 315 316 317 318 317 318 316 318 319 318 318 318 317 319 322 322 323 324 324 324 324 325 325 325 325 323 326 329 324 327 326 326 327 323 322 324 320 321 323 329 339 345 352 353 354 355 354 354 355 354 354 354 356 355 353 353 352
314 314 314 314 314 314 314 314 316 317 316 316 315 315 315 316 316 317 322 325 318 315 315 314 314 315 314 315 314 314 315 315 316 317 317 318 318 317 318 318 317 317 316 316 318 319 319 321 321 321 323 323 325 325 325 324 325 327 327 326 326 325 328 329 324 327 327 319 319 322 320 324 332 348 354 352 354 353 353 354 353 354 354 355 356 354 353 352
314 314 314 314 314 314 313 314 316 317 316 316 315 315 316 317 319 324 325 322 316 314 314 314 314 315 314 315 315 314 314 315 316 317 317 317 317 317 317 317 316 316 318 317 316 318 317 318 320 321 323 325 324 324 323 324 325 326 326 325 324 328 332 334 339 338 325 323 327 323 320 318 320 337 351 351 353 354 351 352 352 353 355 355 356 355 354 353
314 315 314 314 314 314 314 314 315 316 316 316 315 316 317 318 322 328 325 317 315 315 314 315 315 315 314 315 315 315 315 315 316 316 316 316 317 317 316 317 317 317 322 320 316 318 317 316 320 321 321 323 323 324 323 324 325 324 328 326 323 330 333 333 339 333 319 326 335 325 319 318 316 330 350 352 352 352 350 351 352 352 354 356 356 355 354 353
314 315 314 315 315 314 315 315 315 315 315 316 316 316 320 323 324 326 323 315 315 315 314 316 316 315 315 315 316 315 316 316 315 315 316 316 317 316 316 318 316 316 321 320 316 318 319 316 318 318 320 321 322 327 325 325 326 323 328 328 323 325 326 325 328 326 322 327 331 324 319 319 321 332 348 351 350 350 349 349 351 352 353 356 356 355 354 354
315 315 315 316 316 315 315 315 315 315 315 316 316 316 323 329 325 321 318 314 314 315 315 316 315 316 317 316 315 316 316 315 315 315 316 315 316 316 316 316 316 316 318 318 316 317 320 321 320 317 319 320 320 325 324 324 326 324 326 326 323 323 321 321 324 323 323 326 326 323 320 321 324 329 341 350 349 348 348 348 349 351 353 355 356 355 354 353
315 315 317 317 317 315 315 315 314 315 316 315 316 320 326 326 321 316 315 314 314 315 315 315 314 316 317 316 315 316 316 315 315 315 316 316 316 317 317 315 315 316 318 319 318 317 318 322 322 317 317 318 318 319 321 324 326 324 328 328 327 327 323 323 325 323 322 325 326 323 321 323 323 325 338 346 347 347 347 347 348 348 353 355 356 356 354 354
315 317 318 318 318 316 315 315 314 315 316 314 318 325 324 319 317 316 315 315 314 314 314 314 314 315 316 316 315 314 315 316 315 315 314 315 315 316 315 314 314 314 317 319 318 316 316 319 319 316 316 317 316 316 317 321 324 326 328 324 323 327 326 324 327 329 325 322 324 325 325 329 330 330 334 334 340 347 344 346 347 346 350 353 355 356 354 353
317 317 318 317 317 315 315 315 314 315 315 315 323 326 319 314 314 314 314 314 313 314 314 314 314 313 314 315 315 314 315 315 315 314 314 314 314 313 314 313 313 313 314 317 316 315 315 318 317 316 317 316 315 316 315 318 324 327 323 321 324 327 325 322 323 329 323 318 325 327 324 329 328 328 332 326 330 339 342 347 346 344 348 352 354 355 354 354
319 319 318 316 316 315 315 314 315 315 313 318 327 324 315 314 313 312 313 312 312 313 313 313 313 313 312 313 313 313 314 314 314 313 315 315 314 313 312 313 313 312 312 315 317 314 315 316 316 316 318 316 315 316 317 317 321 323 320 322 328 326 326 327 323 324 323 320 326 326 322 328 326 326 336 332 324 330 339 346 344 345 348 350 352 354 353 353
320 320 319 317 316 315 315 316 316 315 314 321 328 322 313 313 312 312 312 311 312 313 312 312 312 313 312 312 312 312 313 313 313 313 315 315 314 312 311 312 313 313 312 314 315 314 314 315 316 316 316 316 316 317 318 317 317 318 318 322 327 323 323 328 323 321 323 321 324 326 325 327 326 327 334 331 324 325 334 344 346 346 349 350 351 352 351 352
320 320 318 316 317 315 316 317 316 315 318 323 325 319 314 313 312 312 313 312 312 312 312 312 312 313 312 311 312 313 313 312 312 313 314 314 314 312 312 312 312 312 313 314 314 314 315 316 316 316 314 315 317 318 317 316 315 317 316 318 323 322 322 325 324 323 324 323 324 328 329 330 331 333 333 331 333 331 332 344 347 346 350 351 351 351 350 350
321 321 318 315 316 316 316 316 315 319 323 322 317 315 314 312 312 313 312 312 312 311 312 312 312 313 312 312 312 312 313 312 312 313 313 312 312 312 312 312 312 312 313 314 313 315 317 317 316 315 315 315 317 316 315 315 314 314 315 315 318 321 323 323 324 324 324 325 326 325 328 333 333 334 335 337 341 338 336 344 346 345 350 351 350 352 350 349
320 322 318 314 316 316 315 316 316 319 321 317 313 314 314 313 312 312 312 312 312 312 312 311 311 312 312 312 312 312 313 312 312 312 312 312 312 312 312 312 312 312 313 315 314 315 317 319 317 316 315 315 315 315 315 315 315 314 315 317 318 319 321 320 323 326 323 324 328 326 326 330 331 333 338 340 341 340 337 340 344 345 348 351 351 351 350 350
320 321 317 314 316 316 314 317 318 318 316 314 313 313 314 313 312 311 312 311 312 312 312 311 312 311 312 312 312 312 313 313 312 312 312 313 312 312 312 312 312 312 313 315 314 314 317 319 317 316 316 315 315 316 316 316 318 317 316 318 318 317 319 319 322 327 322 322 329 329 325 327 329 331 337 341 340 339 337 338 342 344 346 350 351 350 351 350
321 321 316 314 315 315 315 316 317 317 314 313 312 311 311 312 311 311 311 312 312 312 312 311 311 311 311 312 312 312 313 313 313 312 312 313 313 312 312 312 312 312 313 315 314 313 316 318 318 318 318 316 313 316 318 317 317 317 316 316 315 315 317 318 321 324 324 325 328 325 320 323 327 327 331 340 341 339 339 340 341 342 344 348 351 351 351 350
319 319 316 314 314 314 315 315 316 317 315 312 311 310 311 311 310 311 310 311 313 312 311 312 312 312 312 311 311 312 312 313 313 312 313 314 314 313 312 313 312 312 314 316 315 314 315 318 321 322 321 318 315 321 323 318 314 315 315 315 314 314 315 317 322 327 328 326 325 324 323 324 327 325 329 338 341 339 341 342 341 343 344 345 348 352 351 350
319 319 315 314 314 314 314 313 314 315 315 314 312 311 311 310 310 311 311 311 312 312 312 312 312 313 312 312 312 312 312 313 313 313 314 314 314 313 312 313 312 312 314 316 315 315 315 318 321 324 322 319 318 322 321 316 313 313 313 313 313 313 313 316 321 327 328 325 324 325 325 324 324 324 327 336 340 340 342 342 341 344 345 345 345 350 353 352
320 318 315 315 314 313 313 313 313 313 314 317 316 313 311 311 311 311 311 312 313 313 314 313 313 313 313 313 314 313 313 313 314 315 315 314 314 312 312 313 313 313 315 315 313 315 316 317 320 323 321 318 316 316 315 313 312 311 312 312 313 313 313 315 320 324 324 324 326 329 326 323 323 322 327 336 340 340 340 340 339 341 344 347 346 348 351 351
319 317 315 316 315 314 314 313 313 313 314 315 316 313 311 311 310 311 312 313 313 313 314 314 313 314 314 314 315 314 315 315 315 315 315 316 314 313 313 313 312 314 315 313 313 315 316 315 316 318 317 315 313 312 312 311 311 310 311 311 312 313 313 314 317 320 319 321 327 331 328 323 321 323 330 338 340 339 339 339 338 338 340 344 347 349 350 350
318 317 315 316 316 315 316 314 312 313 314 314 315 312 311 311 310 310 311 312 312 313 315 316 315 315 316 315 316 316 317 317 317 316 316 317 315 315 316 314 313 312 312 311 312 314 314 315 314 313 313 312 311 311 311 311 311 310 311 311 312 313 313 313 315 315 316 319 323 327 328 325 323 329 337 338 338 339 338 337 337 336 336 338 341 344 345 346
317 317 315 315 315 314 315 313 312 312 314 317 318 314 311 311 311 310 311 313 314 314 315 317 316 315 316 317 317 317 316 316 316 316 316 316 315 317 318 317 314 312 311 312 313 312 315 319 315 312 313 312 311 311 312 311 311 311 310 311 311 312 312 313 313 313 315 318 321 323 326 327 327 334 339 336 334 336 336 336 336 335 334 334 335 336 337 339
317 317 317 317 317 315 313 313 312 312 314 317 318 314 312 312 311 311 311 313 315 314 314 316 316 314 315 317 317 316 315 315 315 315 315 314 315 317 318 316 315 314 314 313 313 313 315 319 316 313 314 313 312 312 312 312 312 312 311 312 312 312 313 312 313 315 316 318 320 321 325 329 332 336 338 334 331 332 333 334 334 333 333 333 332 333 333 335
316 317 316 319 321 317 313 311 312 314 315 315 316 315 313 312 310 310 312 312 312 313 312 314 316 315 315 316 317 316 315 313 314 314 312 311 312 314 316 315 313 314 314 313 315 315 316 318 318 316 316 314 312 313 313 312 313 312 312 313 313 312 312 312 313 314 315 317 317 318 325 334 336 335 335 332 329 330 330 332 332 331 331 331 331 330 331 332
317 317 316 318 320 316 312 312 313 315 315 313 314 315 313 312 310 311 314 313 310 311 311 311 313 316 316 315 316 315 313 312 312 312 311 312 312 311 312 312 311 312 312 313 316 319 319 320 319 317 317 316 313 312 313 313 314 314 314 314 312 313 314 314 316 318 320 321 320 320 329 336 334 331 332 331 328 328 328 328 329 329 329 329 329 329 328 330
Wind_Speed
20 19 19 18 18 18 18 18 17 16 15 15 15 15 15 15 15 15 15 14 13 11 11 11 11 11 11 11 11 11 11 10 11 13 13 9 13 14 16 19 16 14 15 17 18 17 17 16 16 18 17 14 14 14 14 14 14 9 3 1 3 3 3 3 2 2 3 5 4 5 6 4 6 9 8 8 8 7 2 7 8 8 18 25 28 38 39 39
19 19 19 18 18 18 19 19 18 17 16 15 15 15 16 16 16 15 15 14 13 12 11 11 11 11 11 11 11 11 11 11 12 11 8 6 14 18 19 21 20 16 15 18 20 19 19 18 19 20 17 13 13 14 12 13 16 10 2 2 4 3 3 3 5 3 3 7 8 7 7 6 6 9 8 6 6 6 2 6 11 17 22 26 34 39 38 40
19 19 18 18 18 18 19 19 19 18 17 16 15 16 16 16 16 16 15 14 13 12 12 11 11 11 11 11 11 10 11 11 8 4 1 1 9 17 19 22 22 20 16 16 19 18 17 16 19 21 16 13 13 14 10 10 14 11 6 2 5 5 2 5 10 7 7 13 12 8 8 6 6 11 10 8 9 6 5 7 14 22 28 32 37 38 39 41
19 19 18 18 17 17 18 19 19 19 17 16 16 16 16 17 17 16 15 15 13 12 11 11 11 11 11 11 10 9 10 7 3 6 7 6 4 11 16 20 22 22 18 14 17 17 14 13 17 19 15 12 15 14 11 12 12 8 9 5 5 6 3 6 13 12 12 16 14 11 10 7 7 10 10 13 11 6 9 13 17 28 36 38 39 39 39 40
18 18 18 18 18 17 17 18 19 19 18 17 17 16 16 17 17 17 15 14 13 12 11 11 11 10 10 9 8 8 7 4 3 5 7 7 7 5 10 16 20 22 20 17 17 18 17 15 14 16 13 10 12 10 12 19 16 6 10 14 8 6 4 11 17 14 13 16 16 13 8 8 10 8 12 17 10 7 14 18 24 33 38 40 43 40 39 40
19 18 18 18 18 18 17 17 18 19 19 19 18 16 16 17 17 17 15 13 12 11 10 10 10 9 8 8 8 7 3 1 2 5 4 5 6 3 4 12 18 20 21 20 19 20 20 18 13 13 12 9 9 9 12 20 19 7 9 15 14 10 6 15 20 15 17 18 15 13 9 10 9 7 13 14 7 10 13 19 31 35 35 40 43 39 38 40
21 20 19 19 18 18 17 17 18 18 19 19 18 17 16 17 17 16 13 11 10 9 10 8 8 7 6 7 6 6 4 2 1 5 3 3 4 1 3 10 17 18 21 22 23 23 22 17 13 13 9 7 9 10 13 15 17 11 8 9 15 17 12 21 22 18 22 20 17 17 12 11 8 9 12 7 7 11 12 21 35 38 35 37 40 37 36 38
22 22 21 20 19 19 18 17 18 18 19 19 19 17 17 17 16 14 12 10 9 9 9 8 7 6 6 5 5 6 4 1 3 5 3 3 4 2 5 10 16 19 21 24 26 25 22 18 17 14 7 7 9 10 12 11 11 10 11 12 15 17 17 25 24 21 23 20 20 19 13 11 11 11 11 7 11 13 16 26 35 41 36 34 38 35 34 37
22 22 22 21 20 20 18 17 17 18 19 18 18 17 17 18 15 12 10 10 9 9 9 8 8 6 5 2 3 4 2 4 4 4 4 5 6 1 5 6 14 20 21 23 26 25 22 20 20 17 9 12 12 10 12 7 6 8 12 14 12 13 19 26 26 21 21 20 22 17 10 11 11 10 8 9 14 14 19 28 36 43 35 32 37 32 34 38
21 21 22 22 21 21 20 18 17 18 18 18 18 16 16 17 14 11 10 10 10 9 8 8 8 5 4 2 1 1 5 5 4 2 5 5 6 3 4 5 10 18 21 23 26 26 25 23 23 20 11 13 11 11 12 7 9 13 12 12 9 13 21 27 27 21 19 17 19 15 7 10 11 8 5 12 17 15 20 28 35 39 31 34 36 30 35 39
22 22 22 21 21 21 20 19 17 18 18 18 17 15 15 15 13 10 9 10 9 7 8 9 8 5 4 3 5 5 5 5 1 4 5 3 5 4 4 8 9 15 20 23 27 28 27 24 20 12 7 7 8 10 13 10 11 16 14 12 7 12 20 25 25 21 18 10 14 17 8 7 9 5 5 16 20 17 20 25 32 36 31 34 35 29 34 38
23 23 22 21 21 20 20 19 17 18 18 18 17 15 14 12 11 9 8 9 8 7 8 8 5 3 3 5 8 6 5 3 1 3 4 3 3 4 1 7 9 12 18 23 28 29 27 23 16 10 9 8 7 6 10 12 12 15 11 6 2 10 15 18 20 22 18 8 17 22 9 3 7 6 8 19 21 18 22 24 29 35 32 34 34 29 34 38
24 23 22 21 21 20 20 18 16 17 18 18 17 15 14 10 9 9 7 7 7 7 6 7 4 1 3 5 5 4 3 2 2 2 5 6 5 1 1 2 6 10 15 22 27 28 27 20 13 13 15 12 9 8 13 15 13 12 7 3 2 6 10 15 16 19 14 12 27 20 4 5 8 9 11 18 23 21 22 24 28 32 32 34 33 29 33 37
23 22 21 20 20 20 19 16 15 17 17 18 16 15 13 8 7 9 6 6 7 6 5 5 4 4 5 4 3 3 1 1 4 6 5 6 7 5 2 2 4 6 9 20 25 26 25 17 14 16 16 15 12 12 13 10 7 6 5 3 2 3 6 13 16 16 8 13 30 13 2 7 9 11 14 19 27 24 21 25 29 30 32 34 33 31 32 36
21 20 19 19 19 19 18 15 14 16 17 17 15 14 11 7 8 8 6 5 7 6 3 4 5 6 8 6 3 4 3 2 4 6 7 5 7 9 5 3 4 3 4 15 23 24 22 15 16 17 16 16 11 7 5 4 3 1 1 4 2 1 5 12 18 18 11 14 26 9 1 6 8 12 18 23 28 24 21 27 30 29 31 33 32 32 32 35
20 19 18 18 18 17 16 14 14 16 16 14 13 12 8 8 7 6 4 4 6 5 2 4 5 5 6 5 4 5 5 4 3 5 7 4 8 11 6 4 6 5 5 11 18 18 16 13 14 16 16 12 5 2 3 4 4 2 2 3 3 2 4 7 13 20 19 15 18 11 1 2 5 11 20 26 29 25 21 26 31 30 31 31 31 32 31 34
20 19 18 18 18 17 16 14 14 15 13 11 12 10 6 8 8 6 5 4 5 5 5 6 6 7 5 2 2 3 4 4 2 4 8 5 9 11 6 8 9 9 8 8 11 11 10 10 9 10 10 5 1 2 1 3 3 4 1 3 3 3 4 4 8 16 19 17 14 13 6 4 5 11 21 28 29 26 22 24 30 31 31 31 31 32 32 34
20 19 19 19 17 16 15 13 14 13 11 11 11 10 8 7 6 5 4 5 6 4 5 6 6 4 3 2 2 3 3 6 3 2 7 6 8 9 8 10 11 11 11 8 10 12 10 7 4 2 3 4 2 3 3 4 4 3 4 3 3 3 4 4 5 10 15 15 15 14 10 7 6 11 20 28 30 27 26 25 28 31 32 32 32 33 33 36
20 20 19 19 17 16 14 12 11 9 11 13 11 8 7 9 5 2 6 11 8 3 3 5 6 3 4 8 9 6 2 7 4 1 6 5 6 9 8 8 11 15 11 6 7 11 9 4 2 2 3 5 5 4 5 4 5 5 5 3 3 4 5 6 3 11 18 13 14 16 12 8 10 13 17 26 31 28 27 26 26 29 31 31 32 33 34 36
20 20 20 20 17 15 12 9 8 8 12 14 14 11 9 12 6 3 15 20 12 8 8 9 11 14 15 15 12 7 3 5 6 5 5 5 6 8 8 6 12 14 8 4 4 9 10 3 3 5 5 6 6 6 6 6 7 7 6 4 6 6 7 7 3 12 20 13 13 17 13 11 14 15 17 25 28 23 24 24 25 29 31 32 33 34 35 37
21 21 21 21 18 16 11 7 7 8 11 14 16 14 10 12 6 6 18 21 15 10 12 14 15 20 20 17 15 10 5 4 7 8 6 7 8 7 8 7 7 7 6 7 6 6 8 4 5 8 7 7 7 7 7 8 10 8 6 5 7 7 8 10 6 14 22 12 10 14 12 12 15 15 17 22 21 19 24 24 26 29 30 33 35 35 36 36
21 21 22 21 18 16 10 6 6 7 9 12 14 12 9 9 6 8 13 14 17 14 13 16 16 18 18 16 14 9 6 5 5 7 6 11 11 7 8 6 3 4 5 7 5 3 5 4 7 9 8 7 7 8 7 9 10 8 6 5 7 7 6 9 5 10 18 8 8 16 13 11 13 14 16 21 21 22 28 29 31 33 30 33 36 36 37 35
21 22 22 21 19 16 11 6 6 6 8 12 15 14 11 8 8 14 13 9 15 17 14 13 14 16 15 10 8 6 4 3 4 8 7 13 13 10 9 6 4 5 4 5 4 4 3 5 11 12 9 8 8 9 8 7 7 6 6 4 7 8 5 5 3 4 9 3 3 9 5 3 7 9 12 20 24 23 26 29 32 35 34 36 39 39 39 37
21 21 22 21 19 16 11 7 5 6 7 10 15 14 12 10 11 16 13 4 7 12 9 9 12 12 10 6 6 4 2 3 4 6 8 10 11 8 6 6 5 4 4 7 7 6 5 8 13 12 8 9 8 9 8 6 5 6 7 7 8 10 8 7 3 3 5 4 7 7 4 1 6 10 9 14 19 19 22 26 27 32 35 37 38 38 40 40
21 21 21 21 19 15 12 6 5 5 4 7 11 8 8 11 11 14 11 2 4 6 3 6 9 7 5 5 6 3 1 3 4 7 9 5 6 5 1 3 5 4 6 9 9 5 6 13 13 8 7 9 8 8 8 7 5 6 8 10 11 13 12 10 6 2 3 1 8 8 4 3 5 9 9 9 13 13 17 21 22 28 31 33 35 36 39 41
21 21 21 21 19 16 11 5 5 5 3 3 7 5 7 7 8 11 7 2 2 3 0 3 6 5 5 4 5 3 1 2 2 7 9 4 3 2 1 1 1 4 6 6 6 3 5 13 11 8 9 11 9 9 9 7 5 5 7 9 11 11 11 10 6 3 0 2 4 3 3 3 2 7 9 9 12 12 14 15 20 27 29 32 35 36 39 40
21 20 21 19 18 16 12 7 6 5 3 4 6 8 9 5 7 11 4 3 3 1 1 2 3 3 4 3 4 5 1 3 0 6 9 4 1 1 0 2 2 2 2 2 2 3 5 10 10 9 9 9 8 8 9 8 6 5 8 8 8 8 8 8 5 4 4 5 5 4 2 4 3 9 12 11 11 11 12 14 18 25 30 33 35 37 39 41
19 18 19 18 16 14 12 8 5 4 5 5 8 8 7 5 7 7 2 3 2 1 1 1 2 2 2 2 4 5 2 3 1 4 6 1 1 1 1 3 2 3 3 2 2 5 2 3 6 7 6 5 7 9 12 9 6 6 10 8 6 7 7 5 3 3 2 5 3 6 5 3 3 7 10 12 12 12 16 17 18 25 31 34 36 38 40 41
17 16 17 16 12 11 11 7 3 3 5 6 7 5 5 6 6 2 2 3 0 1 1 2 2 3 3 1 4 6 4 4 2 5 7 3 3 3 2 5 3 2 3 2 3 5 3 4 7 4 4 5 6 11 13 9 7 7 10 9 5 4 5 2 2 2 2 3 4 6 5 4 3 3 7 10 11 14 17 16 17 25 32 33 35 38 39 41
15 15 16 14 9 7 7 4 2 4 6 8 8 5 4 6 3 2 2 2 2 1 1 2 1 2 3 1 1 5 3 4 5 7 6 3 4 4 3 4 2 2 2 1 3 7 5 8 10 4 4 4 3 7 11 11 10 7 5 8 5 3 3 3 3 3 3 2 5 7 6 5 2 4 7 10 14 19 18 13 14 21 28 32 34 37 40 42
15 14 12 9 5 5 5 2 2 5 7 7 8 7 5 3 2 3 2 1 0 2 2 2 2 1 3 1 1 4 2 1 3 5 2 1 1 2 4 3 2 3 4 4 3 6 5 3 3 5 7 5 4 6 5 6 7 4 1 2 3 4 4 4 4 3 1 5 5 5 3 5 3 4 7 13 19 22 18 14 16 20 27 34 36 38 41 43
16 11 5 3 6 7 7 6 1 2 3 4 7 8 4 3 2 2 2 5 2 1 3 2 1 1 1 1 1 2 1 1 2 3 1 2 3 4 5 3 2 2 3 3 2 6 5 2 2 6 8 5 3 4 4 4 1 3 3 4 1 2 3 1 3 2 2 5 6 3 4 2 5 5 10 16 18 18 16 17 21 24 30 34 37 39 40 42
12 4 3 4 7 7 8 9 6 4 4 6 9 7 3 4 3 2 2 4 2 1 3 2 3 2 2 4 3 1 2 3 3 3 3 4 5 6 8 9 7 2 1 1 2 5 5 4 5 2 4 10 8 1 1 4 1 3 3 4 4 2 2 1 2 2 3 5 8 2 4 1 5 5 10 16 18 21 22 24 27 31 36 38 40 41 39 40
8 3 4 5 6 7 8 9 8 7 8 11 9 4 4 5 2 3 3 3 2 5 5 4 6 4 3 3 2 2 4 4 3 4 6 8 6 5 7 12 13 5 0 2 3 2 2 3 5 2 3 10 10 4 2 4 2 2 4 6 4 3 4 3 2 2 3 4 7 4 2 3 3 4 10 16 21 25 28 31 32 33 38 39 38 37 37 39
7 5 6 7 6 7 9 8 8 8 10 12 7 4 5 3 3 3 3 4 3 6 8 7 6 4 4 3 1 4 4 2 3 6 9 9 7 6 6 8 12 9 3 3 2 1 1 3 3 3 3 5 8 10 8 3 1 3 1 6 2 4 4 2 3 5 3 1 4 3 1 4 5 6 7 11 16 20 24 30 30 31 34 33 31 33 36 38
8 6 9 10 8 8 9 8 7 7 9 9 5 4 4 2 3 3 3 5 4 5 8 7 7 5 5 4 4 6 6 3 5 5 6 8 9 9 7 5 11 11 6 3 1 2 2 4 5 6 2 5 11 13 8 5 3 3 1 2 5 4 6 2 3 2 2 1 3 2 2 5 4 7 8 7 10 12 17 21 24 30 32 30 31 35 37 38
7 6 10 12 10 10 9 7 7 7 8 6 5 5 2 1 3 3 5 7 6 6 5 5 6 5 4 4 6 10 8 5 6 5 2 4 7 10 8 6 12 13 10 6 1 1 2 4 4 5 1 8 19 15 6 10 8 2 2 5 4 1 3 3 1 2 2 1 3 2 2 4 3 4 7 7 9 10 14 18 20 25 29 30 33 37 40 41
10 6 10 12 11 10 9 9 8 7 7 4 5 5 2 3 8 8 10 9 6 6 6 5 4 5 6 4 5 10 10 6 6 5 4 4 4 8 8 6 11 17 18 13 4 1 2 3 4 5 4 9 18 10 6 15 14 7 4 6 2 1 0 1 1 2 1 1 3 4 3 3 3 5 6 6 10 10 10 16 17 16 22 29 34 38 41 42
12 7 9 11 8 8 9 10 9 6 5 4 4 4 2 5 12 18 20 14 6 6 5 5 5 5 7 6 4 8 9 7 5 3 4 4 2 8 12 7 9 16 19 14 6 3 4 2 4 3 7 7 8 5 4 10 13 11 10 8 3 1 4 2 2 4 2 2 2 3 4 3 4 5 6 7 8 10 6 13 15 16 24 31 35 36 38 40
10 6 7 8 8 8 8 10 9 5 4 3 4 4 4 6 12 21 26 18 8 7 6 4 6 6 6 7 6 6 6 6 7 5 5 5 2 6 13 10 8 13 15 12 9 5 5 4 4 5 8 5 2 4 5 5 8 9 8 7 7 5 1 1 2 3 3 3 2 0 2 4 4 4 8 10 10 11 7 14 14 16 27 35 36 38 39 40
9 4 5 7 7 10 11 9 5 2 3 3 3 4 6 7 9 17 25 22 13 12 11 8 7 6 5 6 6 4 4 5 7 6 5 6 5 4 10 14 11 10 9 8 8 6 3 3 4 5 6 3 2 4 6 5 4 1 2 6 7 7 4 2 3 3 2 3 4 3 3 4 5 5 8 9 11 13 6 13 17 21 32 37 36 39 42 44
9 3 9 13 9 11 11 7 3 2 3 4 6 7 8 8 8 11 18 20 14 11 13 10 6 6 5 5 5 4 3 4 5 5 5 7 8 5 11 20 18 12 7 2 3 7 4 1 3 5 5 5 3 4 4 5 2 4 5 7 6 6 6 3 3 4 2 1 1 3 3 4 5 7 9 10 13 18 16 5 5 15 26 34 38 41 44 46
10 7 15 22 14 9 8 5 5 4 3 9 13 13 12 10 8 9 13 14 10 7 8 8 6 6 6 5 4 5 4 4 5 6 5 5 7 9 17 22 19 13 7 2 3 9 7 2 3 6 6 5 2 3 1 7 7 5 5 8 7 6 7 5 5 3 2 3 3 1 3 3 6 10 10 12 18 23 25 24 17 10 5 9 26 37 42 45
11 9 16 24 20 16 12 4 3 4 4 9 12 10 12 11 10 9 9 9 8 5 4 5 6 7 5 5 5 6 6 4 4 6 5 3 4 12 20 21 16 9 6 4 4 6 5 1 3 4 5 6 5 3 4 8 8 4 4 8 8 9 12 9 4 1 2 2 2 1 2 3 6 10 11 12 18 20 23 30 27 22 19 8 10 23 32 37
10 7 12 21 23 20 14 6 4 4 4 6 7 5 6 7 10 13 10 9 10 9 5 5 9 9 6 6 7 7 7 4 3 3 4 2 2 8 16 17 14 10 6 8 9 5 1 2 2 3 0 5 2 3 4 6 7 5 5 9 10 11 13 9 4 3 2 2 3 1 1 5 8 12 13 11 14 16 21 31 31 29 28 15 5 19 26 28
7 4 7 13 21 23 18 15 14 8 3 4 4 3 4 3 7 14 12 8 10 13 10 8 11 10 7 6 6 7 7 5 3 2 2 3 1 3 12 14 13 12 8 11 14 8 2 2 2 5 5 5 4 1 3 6 8 8 9 10 9 9 11 8 3 2 2 5 5 2 1 7 11 13 13 10 12 13 17 24 28 33 36 28 13 10 13 12
5 3 5 5 9 14 14 17 18 10 6 6 2 3 7 5 4 9 10 7 10 12 9 9 10 7 5 7 5 5 7 5 5 4 3 2 0 1 9 11 10 12 10 11 13 7 2 2 1 3 5 6 6 5 6 7 10 10 11 11 9 8 10 7 4 4 3 4 5 3 3 7 10 11 11 9 10 10 13 20 26 30 33 34 34 30 26 23
5 3 7 5 2 4 7 11 15 13 10 9 4 3 7 8 5 6 7 8 11 11 6 5 7 7 6 6 4 3 5 5 5 5 4 4 3 3 6 6 7 10 9 8 9 5 2 1 2 2 4 6 6 6 6 7 10 10 9 9 9 9 8 7 7 8 6 3 6 6 7 6 7 8 10 10 9 9 13 17 24 30 30 32 36 36 35 35
9 4 9 10 4 5 9 12 17 15 9 7 5 4 6 7 7 7 6 4 6 7 5 3 4 6 7 6 4 2 2 3 3 4 3 4 5 3 3 3 4 7 6 4 4 3 2 1 3 4 5 6 7 8 8 8 10 10 9 8 8 9 9 9 9 10 9 7 8 5 6 5 5 5 7 9 10 13 19 23 24 28 28 30 34 32 32 35
12 8 9 10 9 10 14 14 13 10 6 6 5 3 4 6 6 5 6 6 3 4 5 4 4 5 5 6 5 3 1 2 1 3 2 2 4 2 1 1 2 4 4 1 1 2 3 1 4 4 4 5 6 7 9 10 11 12 9 6 7 9 9 9 8 8 8 8 7 4 5 4 5 5 7 12 16 18 21 22 22 24 26 27 30 31 31 33
12 11 10 7 6 9 11 8 7 5 4 5 3 2 3 5 5 4 4 7 6 4 4 4 4 3 4 5 4 1 2 1 2 7 5 2 2 2 1 1 2 2 3 2 1 1 2 1 2 3 3 4 3 7 11 12 12 11 6 2 4 7 8 8 7 7 7 7 7 5 2 1 5 6 8 13 17 18 18 17 17 21 25 26 26 28 30 32
8 10 11 7 4 6 6 5 6 5 3 4 4 4 5 6 8 7 4 6 8 6 6 5 3 3 4 1 1 3 5 4 4 7 9 6 6 6 6 7 6 4 3 2 1 0 2 2 1 1 1 3 3 6 9 9 9 8 4 0 4 6 8 7 4 5 6 5 3 2 2 2 5 7 6 10 12 12 15 18 18 20 23 23 24 26 28 29
Wind_Direction
352 352 351 351 350 350 350 349 349 348 346 344 342 340 336 333 330 328 326 323 318 314 314 316 319 320 319 317 315 319 318 305 296 280 266 241 204 195 185 181 175 181 187 176 178 181 183 186 182 177 175 191 217 227 226 218 205 186 169 190 218 231 216 225 148 134 152 138 140 124 122 133 147 156 152 153 123 80 113 135 135 152 148 153 154 152 153 153
351 351 350 350 348 348 348 346 346 345 343 342 339 338 335 332 329 328 326 321 317 311 309 311 313 316 315 315 317 322 322 311 304 288 267 231 201 191 182 181 176 178 188 180 180 184 183 183 178 176 184 203 218 222 226 210 193 183 162 190 223 223 193 160 116 132 175 133 144 147 144 159 156 148 143 141 109 95 151 133 131 141 143 149 151 151 153 153
351 351 350 349 348 346 346 345 343 342 341 339 337 336 333 332 330 329 327 321 317 310 306 307 308 312 313 315 320 324 327 323 322 330 36 188 201 191 184 182 179 181 188 181 183 187 182 178 171 173 190 215 223 222 227 201 192 199 190 211 242 219 168 121 128 166 175 139 142 146 150 157 143 146 145 131 129 152 193 171 158 151 147 150 153 154 154 155
351 350 349 349 348 346 345 343 341 339 339 337 335 334 332 331 330 329 327 322 318 311 305 304 306 309 312 315 322 330 337 346 35 71 65 61 128 188 191 184 180 184 186 177 186 185 171 168 170 176 192 223 231 229 231 205 193 195 192 221 235 196 189 150 146 164 164 144 139 138 152 156 145 151 152 147 147 180 193 190 181 159 153 155 157 157 156 158
350 349 348 347 346 345 344 342 339 337 336 335 333 331 331 331 330 329 326 323 319 312 306 303 306 309 313 317 324 331 347 22 109 90 55 47 74 149 190 188 181 183 186 180 186 184 174 179 186 192 199 223 232 228 234 216 203 197 210 225 223 185 171 157 151 155 161 149 134 135 152 153 150 155 164 166 165 188 183 182 177 162 157 157 158 159 158 159
348 347 346 345 344 343 342 341 338 335 333 333 332 329 330 330 329 329 327 326 320 315 311 306 307 309 316 318 326 331 345 105 147 98 66 31 47 76 168 190 185 180 185 185 188 187 187 193 201 209 208 222 229 221 233 221 210 221 233 228 223 214 166 151 155 154 161 153 140 146 152 146 145 148 167 176 186 186 173 165 167 164 160 159 160 160 160 162
346 344 344 343 341 340 339 339 337 333 331 331 331 328 328 329 329 328 326 327 323 321 318 312 309 310 319 323 336 330 288 246 122 92 84 8 4 348 168 189 189 184 185 188 191 190 194 199 205 217 218 225 232 233 242 232 221 231 250 239 224 217 176 156 162 161 165 161 153 149 141 147 148 153 168 173 181 182 153 154 165 163 161 162 163 163 163 165
344 342 342 341 339 338 336 336 334 332 329 328 330 328 326 327 328 327 324 326 324 324 318 312 310 307 318 323 338 319 284 197 104 87 71 0 352 245 189 191 192 191 190 189 190 191 195 200 207 215 227 234 227 231 244 249 241 237 246 250 234 212 175 162 165 165 165 158 150 141 132 157 160 160 173 163 168 179 152 155 168 163 162 167 167 167 167 165
341 340 340 338 337 335 333 333 331 329 327 326 328 327 326 325 326 324 320 320 318 319 314 308 306 304 310 308 332 312 169 127 130 87 37 356 359 258 197 198 195 194 191 191 192 193 197 204 209 206 222 247 237 237 244 244 246 247 243 250 241 192 165 159 162 167 164 154 148 136 123 153 160 159 176 188 175 172 155 155 167 164 164 173 171 171 169 165
338 337 337 336 335 333 332 330 327 327 324 323 325 324 324 323 323 320 315 315 313 318 320 311 307 300 287 216 162 175 132 119 142 58 351 338 352 320 218 212 200 196 193 192 194 196 199 200 204 208 233 256 248 248 249 236 251 270 267 274 260 177 155 149 155 165 159 157 155 139 125 152 165 169 189 200 176 161 158 156 165 167 169 175 174 172 170 167
335 334 334 334 333 331 330 328 326 324 322 322 323 321 322 320 318 314 312 312 310 324 330 318 307 290 275 220 205 188 138 106 125 305 301 287 337 335 223 213 202 199 196 194 195 196 196 195 200 220 259 265 259 253 254 256 271 288 287 290 273 154 140 139 150 160 150 165 167 135 114 145 166 205 200 184 173 167 169 162 167 173 176 176 175 174 171 171
334 333 332 332 331 328 328 328 325 323 321 321 320 318 318 317 312 307 312 311 308 327 335 332 314 279 278 239 221 185 141 128 119 296 273 241 305 2 220 218 208 205 199 195 196 193 195 201 207 237 264 279 296 275 277 297 312 315 305 281 242 127 137 147 151 159 151 166 162 130 95 164 193 222 182 177 178 178 175 170 173 178 180 177 176 175 172 173
335 334 333 332 330 327 327 328 324 322 321 320 319 317 315 312 302 298 309 310 308 321 338 346 342 346 308 244 206 135 142 228 185 215 260 248 244 314 31 202 191 199 203 197 194 194 199 205 213 241 264 274 284 286 298 312 323 321 314 269 200 115 153 165 152 159 153 160 162 142 88 221 227 216 178 180 182 178 177 178 177 176 178 178 179 178 173 175
338 338 336 333 330 328 329 329 325 322 323 322 319 316 311 306 290 285 300 313 313 320 339 348 349 354 309 245 169 146 200 256 182 184 211 219 221 224 186 143 159 165 198 200 195 198 203 210 232 254 272 268 269 292 299 311 328 316 322 319 209 133 171 169 157 159 142 167 172 158 30 204 231 215 187 184 180 176 177 180 179 175 175 177 181 181 177 178
343 343 340 337 334 333 333 332 328 325 326 324 320 317 309 300 286 276 289 308 315 322 348 342 329 331 306 268 192 192 203 153 163 161 154 172 210 206 188 199 202 151 178 199 198 202 208 225 250 256 267 267 276 309 311 316 333 326 347 320 282 174 197 170 167 169 145 174 189 189 24 200 233 209 192 185 179 182 181 177 181 179 176 177 179 180 179 180
349 349 345 342 340 340 339 337 333 329 331 329 325 324 306 294 294 283 287 299 313 315 324 322 306 317 306 273 192 194 223 202 170 161 160 167 198 195 187 194 206 190 173 189 195 203 216 245 264 260 258 261 270 289 336 336 323 350 140 256 267 194 208 171 179 183 155 157 202 221 187 181 232 203 193 186 182 187 183 175 179 181 180 179 179 181 181 180
354 354 350 347 346 345 345 343 338 334 340 341 335 338 322 300 299 289 279 292 316 303 290 284 274 289 281 225 176 211 233 210 186 191 195 200 196 201 205 185 188 195 185 182 199 213 232 248 261 263 248 231 210 176 338 297 276 322 250 229 254 203 213 179 179 188 163 150 191 216 212 204 207 185 182 184 185 186 184 176 177 180 181 181 181 183 184 183
356 356 353 350 350 349 349 348 341 340 357 4 354 355 356 333 312 290 294 321 322 307 297 263 245 290 249 203 323 310 221 197 203 210 205 210 197 202 204 185 180 183 190 201 214 223 232 236 226 254 237 204 233 179 169 231 214 242 246 245 283 262 245 222 172 177 170 162 179 198 216 220 193 171 174 181 184 185 185 180 177 179 180 181 182 183 185 187
355 355 353 351 351 350 352 351 345 351 13 23 18 4 359 1 13 61 354 335 310 287 298 229 211 276 285 288 315 333 250 211 237 263 199 205 195 197 201 194 181 175 181 197 213 215 208 218 205 209 238 210 227 198 175 229 227 231 253 253 270 280 263 248 202 169 173 173 181 190 202 197 178 177 178 181 184 185 186 183 179 180 180 180 182 184 186 189
351 351 350 349 349 350 353 356 352 358 8 16 22 23 16 11 24 1 338 325 301 282 281 260 252 275 287 295 309 327 304 229 251 264 218 195 183 193 200 184 174 174 171 161 193 208 193 191 220 212 225 210 226 219 192 236 263 271 283 292 278 278 272 266 248 177 178 179 191 192 189 183 182 183 181 180 182 186 186 185 182 180 181 181 182 185 188 191
346 346 346 344 346 349 351 355 355 357 0 6 16 26 26 16 13 332 336 323 304 296 281 275 269 270 276 282 290 307 314 271 258 262 249 213 187 184 196 173 156 173 186 178 179 196 187 196 226 220 223 213 225 225 211 233 252 265 269 284 280 270 271 272 261 185 183 182 191 190 183 188 187 182 181 178 180 189 189 187 186 183 181 183 185 186 189 191
343 342 343 341 342 347 346 343 342 347 359 11 19 21 18 15 0 329 335 316 299 298 284 276 266 262 267 272 275 284 289 281 276 274 242 199 186 182 187 169 153 188 193 189 178 171 188 219 231 225 221 219 232 229 224 232 238 251 250 262 269 265 276 276 283 183 185 188 189 186 184 192 187 178 181 182 184 191 191 189 189 186 182 183 185 187 188 189
340 338 339 339 339 343 343 327 314 326 355 21 27 23 18 7 340 328 327 303 291 297 289 264 248 256 263 261 248 242 242 234 279 282 229 181 179 186 180 165 181 191 183 192 176 158 189 234 228 222 217 214 229 232 228 232 236 241 235 246 256 261 267 257 334 104 155 141 182 183 168 161 176 181 190 191 190 191 194 194 192 189 187 186 187 187 186 187
336 334 334 335 336 338 340 323 288 307 345 30 30 22 19 2 341 336 332 297 283 298 288 236 233 258 261 240 220 207 189 222 255 241 196 174 174 178 180 180 182 186 193 199 193 180 200 235 226 218 219 216 223 235 231 229 244 242 230 231 245 256 252 234 272 44 111 147 170 144 78 79 185 190 197 195 194 194 195 194 192 193 192 190 189 188 188 189
331 330 328 330 333 333 336 323 268 287 329 37 27 16 16 5 351 348 347 342 283 291 284 215 225 251 239 211 218 205 119 264 251 185 173 163 167 161 170 192 178 204 213 200 198 198 221 238 228 204 219 227 225 236 227 212 232 254 238 224 233 249 253 252 265 308 36 127 175 144 121 224 214 200 198 188 193 197 194 193 192 194 195 193 190 189 190 191
328 328 324 325 332 330 332 331 289 298 309 4 6 350 345 349 347 346 351 37 315 273 144 183 207 231 215 188 202 184 56 291 247 182 169 124 150 157 28 257 184 212 211 198 200 196 218 232 226 194 205 219 224 239 231 206 208 249 243 222 228 246 256 262 264 238 126 120 182 178 151 165 201 222 216 195 193 196 195 198 197 195 196 195 193 191 190 191
329 328 322 323 332 330 328 336 328 340 347 309 319 333 338 337 339 338 345 57 350 249 156 171 170 192 190 151 160 145 119 273 219 161 161 127 160 216 212 269 320 258 280 29 202 220 215 225 230 213 204 206 214 237 231 201 185 238 249 234 239 259 267 266 261 242 201 149 167 217 174 119 174 218 211 196 194 201 202 203 202 200 199 197 196 194 192 191
333 328 321 324 332 325 319 326 337 11 11 320 316 341 3 1 340 338 52 84 321 225 146 184 160 165 172 122 175 176 202 249 89 143 182 185 279 173 189 236 227 249 295 64 197 264 257 216 234 221 212 207 205 224 228 206 186 235 251 245 240 252 271 292 298 273 197 140 182 222 177 131 248 224 189 182 190 206 211 206 203 202 201 198 197 197 195 193
337 329 323 326 329 317 312 321 334 356 353 336 337 358 12 351 341 352 93 83 175 225 182 181 169 185 190 128 192 210 231 232 179 178 206 230 202 193 244 240 220 270 276 169 205 264 273 291 286 252 210 216 206 217 220 208 205 230 246 248 245 255 281 345 42 355 37 128 206 227 182 146 273 254 156 171 196 211 216 209 204 203 201 200 199 199 198 195
339 329 324 327 332 324 316 313 295 329 344 346 350 352 339 338 357 72 61 87 146 256 242 198 244 191 171 62 261 234 224 211 193 178 194 214 195 208 277 266 269 346 309 294 265 260 260 283 282 263 220 233 251 238 214 200 212 226 247 256 269 323 351 23 61 59 27 289 233 226 201 154 242 259 168 176 201 208 212 205 201 204 202 201 201 201 200 197
337 330 326 331 8 23 12 11 275 324 348 342 345 350 348 359 61 95 62 352 187 324 308 231 257 207 158 122 252 230 204 200 181 158 159 46 136 326 350 328 329 17 357 345 308 286 294 295 267 267 272 270 286 282 242 198 203 197 179 257 277 313 1 8 356 34 58 272 247 214 182 143 187 252 199 198 208 208 206 198 194 200 202 202 202 202 201 199
337 334 335 17 55 57 46 54 62 354 7 350 357 3 17 59 42 85 9 336 350 312 299 271 241 220 160 63 108 174 151 43 49 83 99 87 60 14 28 24 344 37 346 316 328 323 311 288 273 260 275 317 318 283 315 331 30 125 105 84 95 302 356 344 315 328 214 258 250 188 86 132 218 237 206 206 215 213 207 201 197 198 200 201 202 202 201 199
344 353 117 81 65 64 54 60 73 81 56 15 10 10 53 88 42 1 356 345 5 297 302 323 332 359 69 33 29 68 69 54 40 43 46 65 64 42 39 25 18 77 211 292 33 352 329 320 337 295 304 349 354 357 301 304 21 123 148 122 144 149 78 245 263 284 247 272 274 246 89 215 266 263 210 203 213 213 208 207 202 201 202 202 202 202 201 199
10 79 105 58 53 58 49 51 53 54 39 17 17 30 60 72 25 4 21 346 329 335 338 344 330 338 60 43 35 48 44 39 26 45 45 44 45 31 29 19 15 23 187 58 49 3 15 317 337 34 324 335 354 21 307 254 209 215 184 134 137 155 143 193 192 194 239 274 297 329 66 192 226 248 212 201 210 210 206 208 206 205 205 204 202 200 199 200
46 69 49 28 36 47 41 40 38 38 24 13 26 64 63 52 335 358 7 318 323 343 340 352 3 12 16 9 51 52 56 39 6 54 66 58 49 19 16 16 9 5 10 50 12 335 72 243 280 12 323 332 2 352 342 340 278 269 165 114 150 187 156 179 191 183 185 285 314 326 255 217 211 255 244 205 210 209 204 206 204 205 205 200 198 198 199 201
54 57 43 36 39 38 38 43 45 35 19 18 46 70 79 89 328 347 342 317 325 334 331 359 27 27 9 6 13 10 27 40 15 52 83 72 53 21 9 11 7 7 18 43 8 7 18 263 296 342 346 53 10 338 345 14 300 268 23 170 217 184 137 153 257 239 135 166 282 267 252 289 303 293 283 236 218 212 206 208 203 203 201 191 192 197 198 200
37 46 48 45 39 28 32 49 49 28 9 21 73 70 83 65 358 353 342 339 346 352 8 41 22 15 25 29 21 8 10 20 10 18 59 65 41 12 358 359 5 5 1 6 45 69 346 269 312 358 14 12 355 338 351 16 15 57 290 265 260 23 109 124 284 322 61 164 269 262 223 289 314 292 292 271 245 223 203 207 208 202 194 188 193 197 198 200
12 18 36 36 28 20 27 37 29 8 357 21 71 65 65 35 26 22 6 360 5 13 42 65 19 29 45 37 21 15 17 18 358 2 45 62 28 2 3 356 355 358 1 10 25 314 346 291 313 24 44 348 349 357 5 357 10 41 337 311 339 45 219 41 140 204 141 164 268 290 264 260 233 242 292 287 263 254 210 202 208 196 188 191 195 197 198 199
360 11 36 35 25 18 20 20 10 356 6 43 68 45 43 45 31 27 23 18 19 25 42 51 36 49 50 45 32 16 26 35 14 13 44 48 17 3 11 4 344 355 9 29 38 321 4 11 289 352 32 356 346 26 28 342 351 9 2 353 355 217 195 201 195 180 162 176 221 307 316 284 240 252 313 324 292 290 245 201 205 194 189 194 196 196 196 196
2 13 45 44 33 19 1 352 350 1 40 72 92 49 38 46 30 27 30 30 27 35 46 41 36 50 45 45 46 17 24 38 32 47 43 27 55 22 12 7 350 351 4 33 41 2 12 30 293 311 5 21 41 33 31 357 346 350 354 0 350 326 275 146 244 186 143 156 182 230 279 280 297 322 332 332 325 316 250 200 201 195 193 197 196 193 192 193
19 24 38 30 9 351 346 344 344 73 77 40 72 64 54 53 34 26 30 32 37 49 57 58 50 56 46 41 42 16 24 39 33 57 62 30 43 28 1 5 6 357 356 22 33 15 12 12 320 316 342 21 87 5 337 322 313 310 5 11 360 339 350 11 299 272 141 158 181 175 211 276 314 347 340 330 339 341 293 206 199 195 194 198 197 193 192 194
24 34 25 16 346 320 330 343 2 94 95 59 58 56 55 54 42 29 27 29 33 40 51 58 51 53 51 40 38 23 41 52 27 50 83 55 48 24 360 9 14 15 16 35 2 350 0 23 334 316 288 275 256 256 296 326 346 99 58 17 360 354 7 12 284 290 310 292 229 176 192 257 305 349 352 347 3 8 6 10 193 199 197 197 196 193 192 195
12 19 31 34 38 32 25 20 16 20 69 81 70 55 52 53 46 41 33 31 30 21 40 54 39 43 49 38 37 32 38 55 40 48 75 67 48 25 12 12 13 15 20 29 335 343 355 37 351 323 292 295 274 194 73 38 46 61 31 3 357 352 343 311 259 266 321 350 349 225 200 270 325 344 347 357 16 20 19 24 29 19 2 205 200 196 194 196
14 23 36 42 53 62 58 47 22 24 47 75 77 67 60 58 51 52 43 37 39 23 32 53 36 38 40 34 47 43 34 53 54 48 57 68 43 27 20 14 9 14 18 11 358 343 346 61 50 4 324 330 10 35 8 18 28 26 343 339 343 341 339 327 296 327 54 36 353 187 201 278 312 331 335 359 21 25 22 24 25 20 14 10 205 200 197 197
22 20 23 36 52 62 60 55 65 62 41 61 81 84 74 63 54 59 59 50 51 47 45 45 35 37 37 37 51 45 38 62 69 45 49 53 36 24 19 13 4 2 5 14 18 16 54 115 92 91 292 287 321 40 352 332 339 338 320 328 339 348 346 335 326 9 24 332 333 121 212 297 310 332 339 360 22 28 27 22 21 21 22 28 191 208 207 203
36 21 351 22 45 53 56 53 55 60 43 58 71 42 63 89 51 52 56 52 52 55 59 47 33 37 38 35 49 39 26 44 66 65 65 55 81 7 12 11 7 6 13 21 16 12 108 115 120 148 180 244 252 233 284 293 300 304 312 321 331 341 337 329 340 8 336 321 319 177 136 330 328 333 340 360 17 28 33 23 20 25 27 37 70 159 186 186
54 42 356 352 25 37 46 50 51 49 37 55 65 352 40 68 44 45 56 55 47 50 59 50 36 41 39 32 50 32 8 23 43 33 31 31 219 351 12 13 17 20 26 25 16 16 81 23 329 185 206 243 254 264 283 294 294 297 305 309 315 324 324 323 321 303 318 337 301 263 4 344 325 329 344 4 12 25 36 24 19 25 30 39 58 74 79 74
55 27 20 26 35 20 33 52 56 52 39 46 53 0 37 51 35 40 61 63 51 42 46 54 42 48 54 49 63 27 2 19 18 359 359 4 347 359 7 3 20 26 24 22 24 49 110 301 292 321 311 289 292 308 309 299 289 287 290 290 299 310 307 307 306 300 310 300 261 294 343 335 322 344 360 10 17 32 47 38 22 19 26 37 49 58 60 59
46 19 19 34 40 20 43 65 67 59 42 36 40 19 36 48 38 33 38 49 45 30 37 80 57 44 54 60 70 53 23 44 7 339 344 343 338 358 0 334 2 15 14 25 27 54 101 307 324 355 338 316 324 322 313 315 307 296 288 279 281 287 284 288 293 291 291 270 256 303 352 337 336 10 9 7 23 41 52 54 35 14 14 30 39 43 46 50
51 28 8 14 15 29 54 70 70 64 43 34 38 6 25 50 45 33 36 42 29 351 18 76 95 66 60 60 59 43 20 79 33 297 292 344 339 1 21 263 271 338 345 336 346 59 100 312 334 12 350 315 324 324 324 332 322 309 307 299 282 275 273 277 277 279 288 280 278 334 17 339 331 15 29 20 28 39 44 50 46 25 13 21 31 32 34 41
66 43 19 6 7 30 52 57 56 72 51 26 28 340 24 57 50 31 37 37 34 25 43 92 130 103 67 59 55 342 297 32 280 285 291 312 305 263 230 238 229 310 335 307 280 89 125 254 348 42 356 304 321 340 333 331 322 310 302 295 289 279 270 267 261 264 277 281 293 329 20 249 310 349 33 36 33 38 39 38 45 42 29 24 28 26 25 30
77 56 51 64 43 22 41 41 33 53 52 21 23 19 36 65 56 48 40 17 19 37 61 85 118 85 68 53 288 271 282 289 294 311 316 313 306 291 277 285 291 292 296 289 297 163 147 126 31 50 314 296 332 347 335 335 330 302 255 209 345 318 300 290 286 302 312 313 305 285 219 236 319 342 22 46 36 35 41 36 35 46 42 30 27 25 21 22